Time,TemperatureF,DewpointF,PressureIn,WindDirection,WindDirectionDegrees,WindSpeedMPH,WindSpeedGustMPH,Humidity,HourlyPrecipIn,Conditions,Clouds,dailyrainin,SolarRadiationWatts/m^2,SoftwareType,DateUTC
2013-10-30 00:07:00,48.3,46.0,30.05,SE,144,0.0,1.0,91,0.00,,,0.00,0,weatherlink.com 1.10,2013-10-30 07:07:00,
2013-10-30 00:22:00,48.2,46.0,30.05,SE,144,0.0,0.0,91,0.00,,,0.00,0,weatherlink.com 1.10,2013-10-30 07:22:00,
2013-10-30 00:37:00,48.1,46.0,30.05,SE,144,0.0,0.0,91,0.00,,,0.00,0,weatherlink.com 1.10,2013-10-30 07:37:00,
2013-10-30 00:52:00,47.9,46.0,30.05,SE,144,0.0,0.0,91,0.00,,,0.00,0,weatherlink.com 1.10,2013-10-30 07:52:00,
2013-10-30 01:07:00,47.6,45.0,30.06,SE,144,0.0,0.0,91,0.00,,,0.00,0,weatherlink.com 1.10,2013-10-30 08:07:00,
2013-10-30 01:22:00,47.6,45.0,30.06,SE,144,0.0,0.0,91,0.00,,,0.00,0,weatherlink.com 1.10,2013-10-30 08:22:00,
2013-10-30 01:37:00,47.9,46.0,30.06,SE,144,0.0,1.0,91,0.00,,,0.00,0,weatherlink.com 1.10,2013-10-30 08:37:00,
2013-10-30 01:52:00,48.1,45.0,30.06,SE,144,0.0,1.0,90,0.00,,,0.00,0,weatherlink.com 1.10,2013-10-30 08:52:00,
2013-10-30 02:07:00,48.3,46.0,30.06,SE,144,0.0,1.0,90,0.00,,,0.00,0,weatherlink.com 1.10,2013-10-30 09:07:00,
2013-10-30 02:23:00,48.3,46.0,30.06,SE,144,0.0,1.0,90,0.00,,,0.00,0,weatherlink.com 1.10,2013-10-30 09:23:00,
2013-10-30 02:38:00,48.0,46.0,30.06,SE,144,0.0,0.0,91,0.00,,,0.00,0,weatherlink.com 1.10,2013-10-30 09:38:00,
2013-10-30 02:53:00,47.9,46.0,30.05,SE,144,0.0,0.0,91,0.00,,,0.00,0,weatherlink.com 1.10,2013-10-30 09:53:00,
2013-10-30 03:08:00,47.9,46.0,30.06,SE,144,2.0,2.0,92,0.00,,,0.00,0,weatherlink.com 1.10,2013-10-30 10:08:00,
2013-10-30 03:23:00,48.3,46.0,30.06,SE,144,1.0,2.0,92,0.00,,,0.00,0,weatherlink.com 1.10,2013-10-30 10:23:00,
2013-10-30 03:38:00,48.2,46.0,30.06,SE,144,0.0,1.0,91,0.00,,,0.00,0,weatherlink.com 1.10,2013-10-30 10:38:00,
2013-10-30 03:53:00,47.7,45.0,30.06,SE,144,0.0,0.0,91,0.00,,,0.00,0,weatherlink.com 1.10,2013-10-30 10:53:00,
2013-10-30 04:08:00,47.6,45.0,30.06,SE,144,0.0,0.0,92,0.00,,,0.00,0,weatherlink.com 1.10,2013-10-30 11:08:00,
2013-10-30 04:23:00,48.0,46.0,30.06,SE,144,0.0,1.0,93,0.00,,,0.00,0,weatherlink.com 1.10,2013-10-30 11:23:00,
2013-10-30 04:38:00,49.1,48.0,30.07,SE,144,1.0,2.0,94,0.00,,,0.00,0,weatherlink.com 1.10,2013-10-30 11:38:00,
2013-10-30 04:53:00,49.6,48.0,30.07,SE,144,0.0,2.0,93,0.00,,,0.00,0,weatherlink.com 1.10,2013-10-30 11:53:00,
2013-10-30 05:08:00,49.8,48.0,30.07,SE,144,0.0,2.0,93,0.00,,,0.00,0,weatherlink.com 1.10,2013-10-30 12:08:00,
2013-10-30 05:23:00,49.7,48.0,30.08,SE,144,0.0,1.0,93,0.00,,,0.00,0,weatherlink.com 1.10,2013-10-30 12:23:00,
2013-10-30 05:38:00,49.5,48.0,30.08,SE,144,0.0,1.0,93,0.00,,,0.00,0,weatherlink.com 1.10,2013-10-30 12:38:00,
2013-10-30 05:53:00,49.0,47.0,30.09,SE,144,0.0,0.0,92,0.00,,,0.00,0,weatherlink.com 1.10,2013-10-30 12:53:00,
2013-10-30 06:08:00,49.0,47.0,30.09,SE,144,0.0,1.0,93,0.00,,,0.00,0,weatherlink.com 1.10,2013-10-30 13:08:00,
2013-10-30 06:23:00,48.9,47.0,30.09,SE,144,0.0,1.0,93,0.00,,,0.00,0,weatherlink.com 1.10,2013-10-30 13:23:00,
2013-10-30 06:38:00,48.6,47.0,30.09,SE,144,0.0,0.0,93,0.00,,,0.00,0,weatherlink.com 1.10,2013-10-30 13:38:00,
2013-10-30 06:53:00,48.5,47.0,30.09,SE,144,0.0,0.0,93,0.00,,,0.00,0,weatherlink.com 1.10,2013-10-30 13:53:00,
2013-10-30 07:08:00,48.5,47.0,30.09,SE,144,0.0,1.0,94,0.00,,,0.00,0,weatherlink.com 1.10,2013-10-30 14:08:00,
2013-10-30 07:23:00,48.7,47.0,30.10,SE,144,0.0,1.0,94,0.00,,,0.00,0,weatherlink.com 1.10,2013-10-30 14:23:00,
2013-10-30 07:38:00,48.7,47.0,30.10,SE,144,0.0,0.0,94,0.00,,,0.00,5,weatherlink.com 1.10,2013-10-30 14:38:00,
2013-10-30 07:53:00,48.7,47.0,30.10,SE,144,0.0,0.0,94,0.00,,,0.00,14,weatherlink.com 1.10,2013-10-30 14:53:00,
2013-10-30 08:08:00,49.0,47.0,30.11,SE,144,0.0,1.0,94,0.00,,,0.00,26,weatherlink.com 1.10,2013-10-30 15:08:00,
2013-10-30 08:23:00,49.4,48.0,30.12,SE,144,0.0,0.0,95,0.00,,,0.00,40,weatherlink.com 1.10,2013-10-30 15:23:00,
2013-10-30 08:38:00,50.0,49.0,30.12,SE,144,0.0,0.0,95,0.00,,,0.00,53,weatherlink.com 1.10,2013-10-30 15:38:00,
2013-10-30 08:53:00,50.4,49.0,30.13,SE,144,0.0,1.0,95,0.00,,,0.00,60,weatherlink.com 1.10,2013-10-30 15:53:00,
2013-10-30 09:08:00,50.9,50.0,30.14,SE,144,0.0,1.0,95,0.00,,,0.00,77,weatherlink.com 1.10,2013-10-30 16:08:00,
2013-10-30 09:23:00,51.2,50.0,30.14,SE,144,0.0,2.0,95,0.00,,,0.00,97,weatherlink.com 1.10,2013-10-30 16:23:00,
2013-10-30 09:38:00,51.5,50.0,30.15,SE,144,0.0,0.0,94,0.00,,,0.00,93,weatherlink.com 1.10,2013-10-30 16:38:00,
2013-10-30 09:53:00,51.9,50.0,30.15,SE,144,0.0,1.0,93,0.00,,,0.00,158,weatherlink.com 1.10,2013-10-30 16:53:00,
2013-10-30 10:09:00,52.9,51.0,30.15,SE,144,0.0,1.0,93,0.00,,,0.00,225,weatherlink.com 1.10,2013-10-30 17:09:00,
2013-10-30 10:24:00,54.6,52.0,30.15,SE,144,0.0,2.0,91,0.00,,,0.00,452,weatherlink.com 1.10,2013-10-30 17:24:00,
2013-10-30 10:39:00,56.7,52.0,30.15,NNE,13,0.0,3.0,84,0.00,,,0.00,206,weatherlink.com 1.10,2013-10-30 17:39:00,
2013-10-30 10:54:00,58.7,53.0,30.15,NNE,13,0.0,1.0,81,0.00,,,0.00,473,weatherlink.com 1.10,2013-10-30 17:54:00,
2013-10-30 11:09:00,60.5,53.0,30.15,NNE,13,1.0,2.0,76,0.00,,,0.00,520,weatherlink.com 1.10,2013-10-30 18:09:00,
2013-10-30 11:24:00,61.8,54.0,30.15,NNE,13,0.0,2.0,75,0.00,,,0.00,545,weatherlink.com 1.10,2013-10-30 18:24:00,
2013-10-30 11:39:00,63.1,52.0,30.15,South,188,0.0,3.0,68,0.00,,,0.00,573,weatherlink.com 1.10,2013-10-30 18:39:00,
2013-10-30 11:54:00,64.0,53.0,30.15,North,9,0.0,3.0,67,0.00,,,0.00,624,weatherlink.com 1.10,2013-10-30 18:54:00,
2013-10-30 12:09:00,64.9,54.0,30.14,West,281,0.0,3.0,67,0.00,,,0.00,635,weatherlink.com 1.10,2013-10-30 19:09:00,
2013-10-30 12:24:00,66.1,53.0,30.14,NE,46,1.0,2.0,64,0.00,,,0.00,615,weatherlink.com 1.10,2013-10-30 19:24:00,
2013-10-30 12:39:00,67.7,53.0,30.14,SW,225,0.0,3.0,59,0.00,,,0.00,624,weatherlink.com 1.10,2013-10-30 19:39:00,
2013-10-30 12:54:00,67.7,53.0,30.13,NNW,329,0.0,3.0,59,0.00,,,0.00,624,weatherlink.com 1.10,2013-10-30 19:54:00,
2013-10-30 13:09:00,68.1,52.0,30.12,North,5,0.0,2.0,57,0.00,,,0.00,621,weatherlink.com 1.10,2013-10-30 20:09:00,
2013-10-30 13:39:00,69.0,50.0,30.11,SSW,200,2.0,4.0,52,0.00,,,0.00,624,weatherlink.com 1.10,2013-10-30 20:39:00,
2013-10-30 13:54:00,69.3,50.0,30.11,SSE,168,0.0,3.0,51,0.00,,,0.00,594,weatherlink.com 1.10,2013-10-30 20:54:00,
2013-10-30 14:09:00,69.8,49.0,30.11,NNE,20,0.0,2.0,48,0.00,,,0.00,578,weatherlink.com 1.10,2013-10-30 21:09:00,
2013-10-30 14:24:00,69.9,49.0,30.10,NNW,343,0.0,4.0,47,0.00,,,0.00,559,weatherlink.com 1.10,2013-10-30 21:24:00,
2013-10-30 14:39:00,69.3,49.0,30.09,WSW,245,2.0,6.0,48,0.00,,,0.00,543,weatherlink.com 1.10,2013-10-30 21:39:00,
2013-10-30 14:55:00,66.6,49.0,30.09,SSE,168,2.0,5.0,54,0.00,,,0.00,520,weatherlink.com 1.10,2013-10-30 21:55:00,
2013-10-30 15:10:00,66.2,50.0,30.09,South,179,1.0,4.0,56,0.00,,,0.00,489,weatherlink.com 1.10,2013-10-30 22:10:00,
2013-10-30 15:25:00,65.4,50.0,30.09,SE,130,5.0,5.0,58,0.00,,,0.00,443,weatherlink.com 1.10,2013-10-30 22:25:00,
2013-10-30 15:40:00,64.5,50.0,30.09,SSW,211,2.0,5.0,59,0.00,,,0.00,415,weatherlink.com 1.10,2013-10-30 22:40:00,
2013-10-30 15:55:00,64.5,50.0,30.09,SE,142,1.0,5.0,60,0.00,,,0.00,381,weatherlink.com 1.10,2013-10-30 22:55:00,
2013-10-30 16:10:00,64.1,51.0,30.08,SSE,164,1.0,5.0,62,0.00,,,0.00,343,weatherlink.com 1.10,2013-10-30 23:10:00,
2013-10-30 16:25:00,65.0,50.0,30.08,SSE,161,2.0,4.0,59,0.00,,,0.00,297,weatherlink.com 1.10,2013-10-30 23:25:00,
2013-10-30 16:40:00,65.0,50.0,30.08,SSW,198,2.0,5.0,59,0.00,,,0.00,253,weatherlink.com 1.10,2013-10-30 23:40:00,
2013-10-30 16:55:00,63.8,51.0,30.08,South,184,2.0,4.0,63,0.00,,,0.00,199,weatherlink.com 1.10,2013-10-30 23:55:00,
2013-10-30 17:10:00,62.5,51.0,30.08,SE,146,4.0,5.0,66,0.00,,,0.00,142,weatherlink.com 1.10,2013-10-31 00:10:00,
2013-10-30 17:25:00,61.1,50.0,30.08,SE,138,1.0,5.0,67,0.00,,,0.00,60,weatherlink.com 1.10,2013-10-31 00:25:00,
2013-10-30 17:40:00,60.5,49.0,30.08,SSE,147,1.0,5.0,67,0.00,,,0.00,32,weatherlink.com 1.10,2013-10-31 00:40:00,
2013-10-30 17:55:00,60.1,50.0,30.08,SE,146,1.0,4.0,69,0.00,,,0.00,18,weatherlink.com 1.10,2013-10-31 00:55:00,
2013-10-30 18:10:00,59.3,51.0,30.09,SE,144,3.0,5.0,73,0.00,,,0.00,5,weatherlink.com 1.10,2013-10-31 01:10:00,
2013-10-30 18:25:00,58.3,51.0,30.09,SSE,147,1.0,4.0,76,0.00,,,0.00,0,weatherlink.com 1.10,2013-10-31 01:25:00,
2013-10-30 18:40:00,57.5,49.0,30.09,SSE,147,0.0,0.0,74,0.00,,,0.00,0,weatherlink.com 1.10,2013-10-31 01:40:00,
2013-10-30 18:55:00,56.9,49.0,30.10,SSE,147,1.0,2.0,74,0.00,,,0.00,0,weatherlink.com 1.10,2013-10-31 01:55:00,
2013-10-30 19:10:00,56.3,48.0,30.10,SSE,147,0.0,0.0,75,0.00,,,0.00,0,weatherlink.com 1.10,2013-10-31 02:10:00,
2013-10-30 19:25:00,55.4,48.0,30.10,SSE,147,0.0,0.0,76,0.00,,,0.00,0,weatherlink.com 1.10,2013-10-31 02:25:00,
2013-10-30 19:40:00,54.8,48.0,30.11,SSE,147,0.0,1.0,77,0.00,,,0.00,0,weatherlink.com 1.10,2013-10-31 02:40:00,
2013-10-30 19:55:00,54.3,48.0,30.11,SSE,147,0.0,0.0,78,0.00,,,0.00,0,weatherlink.com 1.10,2013-10-31 02:55:00,
2013-10-30 20:10:00,53.6,47.0,30.11,SSE,147,0.0,0.0,78,0.00,,,0.00,0,weatherlink.com 1.10,2013-10-31 03:10:00,
2013-10-30 20:25:00,53.0,45.0,30.11,NNW,344,0.0,4.0,75,0.00,,,0.00,0,weatherlink.com 1.10,2013-10-31 03:25:00,
2013-10-30 20:40:00,53.0,45.0,30.11,North,355,0.0,1.0,74,0.00,,,0.00,0,weatherlink.com 1.10,2013-10-31 03:40:00,
2013-10-30 20:55:00,53.3,45.0,30.11,NNE,22,0.0,1.0,74,0.00,,,0.00,0,weatherlink.com 1.10,2013-10-31 03:55:00,
2013-10-30 21:10:00,53.2,45.0,30.11,NE,40,1.0,2.0,74,0.00,,,0.00,0,weatherlink.com 1.10,2013-10-31 04:10:00,
2013-10-30 21:25:00,53.1,45.0,30.11,NE,51,0.0,4.0,73,0.00,,,0.00,0,weatherlink.com 1.10,2013-10-31 04:25:00,
2013-10-30 21:40:00,53.2,44.0,30.11,North,355,0.0,4.0,72,0.00,,,0.00,0,weatherlink.com 1.10,2013-10-31 04:40:00,
2013-10-30 21:55:00,53.3,44.0,30.11,NNE,19,1.0,3.0,70,0.00,,,0.00,0,weatherlink.com 1.10,2013-10-31 04:55:00,
2013-10-30 22:10:00,53.2,43.0,30.11,North,360,0.0,3.0,68,0.00,,,0.00,0,weatherlink.com 1.10,2013-10-31 05:10:00,
2013-10-30 22:25:00,52.9,43.0,30.12,North,360,0.0,1.0,69,0.00,,,0.00,0,weatherlink.com 1.10,2013-10-31 05:25:00,
2013-10-30 22:40:00,52.6,42.0,30.12,North,349,0.0,1.0,68,0.00,,,0.00,0,weatherlink.com 1.10,2013-10-31 05:40:00,
2013-10-30 22:55:00,52.3,41.0,30.12,NNE,13,0.0,1.0,66,0.00,,,0.00,0,weatherlink.com 1.10,2013-10-31 05:55:00,
2013-10-30 23:10:00,52.1,41.0,30.12,NNE,13,0.0,1.0,65,0.00,,,0.00,0,weatherlink.com 1.10,2013-10-31 06:10:00,
2013-10-30 23:25:00,52.1,40.0,30.12,NNE,13,0.0,1.0,63,0.00,,,0.00,0,weatherlink.com 1.10,2013-10-31 06:25:00,
2013-10-30 23:40:00,51.9,40.0,30.12,NNE,13,0.0,0.0,63,0.00,,,0.00,0,weatherlink.com 1.10,2013-10-31 06:40:00,
2013-10-30 23:55:00,51.5,39.0,30.11,NNE,14,0.0,1.0,63,0.00,,,0.00,0,weatherlink.com 1.10,2013-10-31 06:55:00,